Regional Weather Roundup
Issued by NWS

Home | Current Version | Previous Version | Text Only | Print | Product List | Glossary On
Versions: 1 2 3 4 5 6 7 8 9 10 11 12 13 14 15 16 17 18 19 20 21 22 23 24 25 26 27 28 29 30 31 32 33 34 35 36 37 38 39 40 41 42 43 44 45 46 47 48 49 50
000
ASUS43 KTOP 211808
RWRKS

WEATHER ROUNDUP FOR KANSAS
NATIONAL WEATHER SERVICE GOODLAND KS
100 PM CDT THU AUG 21 2014

NOTE:  "FAIR" INDICATES FEW OR NO CLOUDS BELOW 12,000 FEET WITH NO
SIGNIFICANT WEATHER AND/OR OBSTRUCTIONS TO VISIBILITY.

KSZ001>006-013>018-027>032-041>047-211900-
NORTHWEST KANSAS

CITY           SKY/WX    TMP DP  RH WIND       PRES   REMARKS
GOODLAND       SUNNY     89  50  26 N8        29.99F
6HR MIN TEMP:  64; 6HR MAX TEMP:  89;

HAYS           SUNNY     95  64  36 S15       29.85S HX  97
HILL CITY      SUNNY     91  66  43 N9        29.87S
6HR MIN TEMP:  73; 6HR MAX TEMP:  91;

RUSSELL        SUNNY     95  66  38 S18G28    29.83F HX  98
6HR MIN TEMP:  77; 6HR MAX TEMP:  96;

$$

KSZ061>065-074>080-084>089-211900-
SOUTHWEST KANSAS

CITY           SKY/WX    TMP DP  RH WIND       PRES   REMARKS
DODGE CITY     SUNNY     93  62  35 S14       29.90S
ELKHART          N/A     89  58  35 NW7         N/A
GARDEN CITY    SUNNY     89  62  40 VRB6      29.91S
6HR MIN TEMP:  71; 6HR MAX TEMP:  89;

GREAT BEND     SUNNY     95  66  38 S22       29.86F HX  98
LIBERAL        SUNNY     97  61  30 SW13      29.93S HX  97
PRATT          SUNNY     91  61  35 SW20G28   29.91S
$$

KSZ066>073-081>083-090>101-211900-
SOUTHEAST KANSAS

CITY           SKY/WX    TMP DP  RH WIND       PRES   REMARKS
CHANUTE        SUNNY     94  70  45 S20G25    29.95F HX 100
6HR MIN TEMP:  77; 6HR MAX TEMP:  94;

COFFEYVILLE    SUNNY     93  73  52 S17G24    29.95F HX 102
6HR MIN TEMP:  78; 6HR MAX TEMP:  93;

HUTCHINSON     SUNNY     96  65  35 S15G24    29.90S HX  98
6HR MIN TEMP:  76; 6HR MAX TEMP:  96;

MEDICINE LODGE   N/A     95  65  37 S14G23    29.88F HX  97
NEWTON         SUNNY     93  64  38 S23       29.94S HX  95
PARSONS        SUNNY     94  72  48 S14G21    29.97F HX 102
6HR MIN TEMP:  76; 6HR MAX TEMP:  94;

WICHITA INTL   SUNNY     95  67  39 S22       29.90F HX  99
6HR MIN TEMP:  75; 6HR MAX TEMP:  95;

WICHITA JABRA  SUNNY     92  68  45 S20G29    29.91F HX  96
6HR MIN TEMP:  76; 6HR MAX TEMP:  92;

WICHITA MCCONL SUNNY     92  69  45 S17G24    29.92F HX  97
WINFIELD       SUNNY     95  70  44 S18G26    29.94F HX 101
6HR MIN TEMP:  77; 6HR MAX TEMP:  95;

$$

KSZ007>012-019>026-033>040-048>060-102>105-211900-
NORTHEAST KANSAS

CITY           SKY/WX    TMP DP  RH WIND       PRES   REMARKS
CONCORDIA      MOSUNNY   90  71  53 S16       29.84F HX  96
6HR MIN TEMP:  76; 6HR MAX TEMP:  90;

EMPORIA        SUNNY     94  68  42 S20G30    29.91F HX  98
6HR MIN TEMP:  74; 6HR MAX TEMP:  94;

LAWRENCE       MOSUNNY   96  71  44 SW16G22   29.90F HX 103
6HR MIN TEMP:  80; 6HR MAX TEMP:  96;

MANHATTAN      SUNNY     96  68  39 S15G22    29.85F HX 101
6HR MIN TEMP:  79; 6HR MAX TEMP:  97;

MARYSVILLE     MOSUNNY   91  72  52 S13G20    29.84F HX  98
OLATHE IND     MOSUNNY   92  70  48 S21       29.94S HX  97
6HR MIN TEMP:  77; 6HR MAX TEMP:  92;

OLATHE EXE     PTSUNNY   89  72  56 S15       29.93F HX  96
6HR MIN TEMP:  76; 6HR MAX TEMP:  90;

SALINA         SUNNY     95  66  38 S20G26    29.85F HX  98
6HR MIN TEMP:  77; 6HR MAX TEMP:  95;

TOPEKA BILLARD SUNNY     94  71  47 S14G24    29.88F HX 101
6HR MIN TEMP:  79; 6HR MAX TEMP:  94;

TOPEKA FORBES  SUNNY     96  69  41 S18       29.89F HX 102
6HR MIN TEMP:  77; 6HR MAX TEMP:  96;

$$


USA.gov is the U.S. government's official web portal to all federal, state and local government web resources and services.